Preview of NWS' New Version of Forecast
This preview is not operational and should not be used for support decisions.

Regional Weather Roundup (RWR)

Issued by National Weather Service (NWS)

                            
000
ASUS45 KCYS 211710
RWRWY 

WYOMING REGIONAL WEATHER ROUNDUP
NATIONAL WEATHER SERVICE CHEYENNE WY
1000 AM MST THU FEB 21 2019

NOTE:  "FAIR" INDICATES FEW OR NO CLOUDS BELOW 12,000 FEET
WITH NO SIGNIFICANT WEATHER AND/OR OBSTRUCTIONS TO VISIBILITY.

WYZ001-211800-
YELLOWSTONE NATIONAL PARK
  
CITY           SKY/WX    TMP DP  RH WIND       PRES   REMARKS
LK YELLOWSTONE   N/A      3  -4  72 E3        29.71R                  
W YELLOWSTONE  NOT AVBL                                               

$$
WYZ002>013-054>058-071-098>099-211800-
NORTHERN WYOMING
  
CITY           SKY/WX    TMP DP  RH WIND       PRES   REMARKS
JACKSON        FAIR       3  -5  69 CALM      29.75S                  
CODY           FLURRIES  18   9  68 N14       29.91S WCI   4          
GREYBULL       CLOUDY    14   9  80 CALM      29.96R                  
WORLAND        CLOUDY    16  13  88 CALM      29.94S                  
SHERIDAN       LGT SNOW  20  12  71 CALM      29.99R                  
BUFFALO        LGT SNOW  15  10  80 N9        29.92R WCI   3          
GILLETTE       PTSUNNY   16  10  77 CALM      29.96R                  
HULETT         FAIR      18   9  68 MISG      29.97                   
NEWCASTLE        N/A      9   0  66 CALM      29.98                   

$$
WYZ014>020-022>026-101>103-211800-
CENTRAL WYOMING
  
CITY           SKY/WX    TMP DP  RH WIND       PRES   REMARKS
BIG PINEY      CLOUDY    -1  -6  79 CALM      29.70S HAZE             
PINEDALE       CLOUDY     0  -6  78 NW7       29.69  WCI -13          
DUBOIS         LGT SNOW   1  -6  71 CALM      29.73                   
LANDER         LGT SNOW  14   9  80 NW6       29.84R WCI   5          
RIVERTON       LGT SNOW  16  10  77 N8        29.84R VSB 1   WCI   5  
CASPER         LGT SNOW  14   9  80 NE5       29.84S WCI   6          
DOUGLAS        CLOUDY    20  12  71 E13       29.89R WCI   7          

$$
WYZ021-027>030-104>119-211800-
SOUTHERN WYOMING
  
CITY           SKY/WX    TMP DP  RH WIND       PRES   REMARKS
EVANSTON       CLOUDY     7   2  80 E10       29.62R HAZE    WCI  -8  
ROCK SPRINGS   MIX PCPN  11   5  77 NE23      29.68R WCI  -9          
DIXON          FAIR      15   6  66 SW3       29.67F                  
RAWLINS        CLOUDY    14   4  64 NE12      29.69S WCI   0          
SARATOGA       FAIR      16   3  57 CALM      29.66F                  
LARAMIE        CLOUDY    15   7  70 S7        29.68S WCI   5          
CHEYENNE       CLOUDY    19  12  74 E8        29.75F HAZE    WCI   9  
TORRINGTON     CLOUDY    23  11  60 NE12      29.90F WCI  12          
PINE BLUFFS    CLOUDY    28  12  50 E12G17    29.80F WCI  18          

$$